Location: Julian California
(33.0790°N, 116.6010°W)
Time: 21:16:39
(UTC-07:00)

Cosmos 2221 - Pass Details

Date: 12 July 2018
Orbit: 592 x 617 km, 82.5° (Epoch: 20 July)

Event Time Altitude Azimuth Distance (km) Brightness Sun altitude
Rises 20:51:51 0° 341° (NNW) 2,830 6.9 -10.7°
Reaches altitude 10° 20:54:14 10° 331° (NNW) 1,923 6.2 -11.1°
Maximum altitude 20:57:59 31° 269° (W) 1,041 4.3 -11.7°
Drops below altitude 10° 21:01:43 10° 207° (SSW) 1,913 5.0 -12.3°
Sets 21:04:05 0° 197° (SSW) 2,812 5.7 -12.7°
